Overview Statistics Trail Chart Weather Telemetry Raw packets
 

This is the latest recevied weather packets stored in our database for station/object KF0RZX-13. If no packets are shown the sender has not sent any weather packets the latest 10 day(s).

<< 1 2 3 4 5 6 7 >>
Time Temp. Humidity Pressure Rain* Wind** Luminosity Snow
1788244736 17.78° C 77% 1020 hPa 0 mm - - -
1788242931 20° C 64% 1021 hPa 0 mm - - -
1788241126 22.78° C 41% 1021.7 hPa 0 mm - - -
1788239321 22.78° C 41% 1021 hPa 0 mm - - -
1788237516 22.78° C 41% 1020.7 hPa 0 mm - - -
1788235712 22.22° C 46% 1020.7 hPa 0 mm - - -
1788233891 22.78° C 44% 1020 hPa 0 mm - - -
1788230277 23.89° C 41% 1019.3 hPa 0 mm - - -
1788228471 25° C 39% 1019.3 hPa 0 mm - - -
1788226666 26.11° C 32% 1019 hPa 0 mm - - -
1788224861 27.22° C 32% 1018.6 hPa 0 mm - - -
1788223056 27.78° C 30% 1019 hPa 0 mm - - -
1788221251 28.89° C 29% 1019 hPa 0 mm - - -
1788219448 30° C 27% 1019 hPa 0 mm - - -
1788217631 30° C 25% 1019 hPa 0 mm - - -
1788215826 30° C 25% 1019.3 hPa 0 mm - - -
1788214021 30° C 25% 1019.3 hPa 0 mm - - -
1788212216 30° C 21% 1019.6 hPa 0 mm - - -
1788210411 32.22° C 20% 1020.3 hPa 0 mm - - -
1788208606 31.11° C 21% 1020.3 hPa 0 mm - - -
1788206801 31.11° C 22% 1020.7 hPa 0 mm - - -
1788204996 30° C 24% 1021 hPa 0 mm - - -
1788203195 28.89° C 25% 1021 hPa 0 mm - - -
1788201367 28.89° C 25% 1021.3 hPa 0 mm - - -
1788199574 28.89° C 25% 1021.7 hPa 0 mm - - -

* Rain latest hour (hover to see other rain measurements)
** Current wind speed in m/s (hover to see current wind gust speed)